STARLINK-35613, 66097

Orbit data source: Space-Track

STARLINK-35613, 66097 is a payload satellite owned by SpaceX/Seattle (US) in LEO that was launched on Sun, 19 Oct 2025 UTC via an FALCON 9 launch vehicle from the Air Force Western Test Range (AFWTR). Payload-class satellites include a variety of spacecraft equipped with specific instruments for various scientific and technological missions. These include communications satellites like Starlink; space stations such as the ISS; scientific satellites like the Hubble; Earth observation satellites from companies like Planet Labs, Umbra, and HawkEye 360; GPS; miniature CubeSats for education and research; and military/defense satellites.

Loading next visibility...
Identifier
66097, 2025-236M
Orbit
LEO
Country
Flag of USUS
Related business
Manufacturer
SpaceX/Seattle
Mission
Operational Commercial Communications
Bus & Motor
STARLINK V2MO, Unknown motor
Mass
575 kg wet, ~530 kg dry
Launch date (UTC)
2025-10-19 (6 months ago)
Launch vehicle
FALCON 9
Launch site
Air Force Western Test Range (AFWTR)
Object type
Payload
Rocket body
Debris
Shape & HBR
Box + 2 Pan, 17.7 m
Radar Cross Section
36.964 m²

Expand to show TLE details & history
Last TLE update: 9 hours ago

TLE from 9 hours ago
0 STARLINK-35613
1 66097U 25236M   26095.12172373  .00034244  00000-0  11649-2 0  9994
2 66097  53.1588 340.9441 0001140 106.7977 253.3149 15.30147163 26992
Epoch: 2026-04-05T02:55Z
TLE epoch observation values (Epoch: 2026-04-05T02:55:16.930Z)
Latitude
Longitude
103.69187°
Altitude
476.497 km
Speed
7.629 km/s
True Right ascension
22h 43m 46s
True Declination
0° 00' 00"
Sunlit
Object was in daylight at epoch
Visualization orbit readout
Latitude
Unknown
Longitude
Unknown
Altitude
Unknown
Speed
Unknown
Apparent Right ascension
Unknown
Apparent Declination
Unknown
Sunlit
N/A
Visualization observer readout
Local Sidereal Time
17:21:09
Azimuth
Unknown
Elevation
Unknown
Doppler factor
Unknown
Orbital elements
Apogee altitude
476.411 km
Perigee altitude
474.848 km
Semi-major axis
6,853.766 km
Eccentricity
0.00011
Inclination
53.1588°
RAAN
340.9441°
Arg. of periapsis
106.7977°
True anomaly
253.30239°
Mean anomaly
253.3149°
Eccentric anomaly
253.30864°
Mean motion
3.82516 °/min
Orbital period
94.11 mins
BSTAR
0.0011649
Loading maneuver chart data...
Computing Atmospheric mass density...
Loading historical data...
Loading historical data...
Loading historical data...
Loading historical data...
Loading historical data...
Loading historical data...
Loading historical data...

Documentation

Showing up to 5 results
|